{"data":{"norad_id":62900,"epoch":"2026-09-22T01:40:56.578656Z","epoch_age_seconds":180306,"freshness":"STALE","line1":"1 62900U 25025A   26265.07009929  .00002491  00000+0  14271-3 0  9991","line2":"2 62900  45.0005 141.9210 0008151 296.5554  63.4489 15.15559757 89193","mean_motion":15.15559757,"eccentricity":0.0008151,"inclination_deg":45.0005,"raan_deg":141.921,"arg_perigee_deg":296.5554,"mean_anomaly_deg":63.4489,"bstar":0.00014271,"rev_number":8919,"period_min":95.014399356343,"perigee_km":513.65762438008,"apogee_km":524.90179309867,"semimajor_km":6897.4167087394,"source":"CELESTRAK","updated_at":"2026-09-23T09:00:21.690700Z"}}